Terminal Aerodrome Forecast
Issued by NWS Charleston, WV

Current Version | Previous Version | Text Only | Print | Product List | Glossary Off
Versions: 1 2 3 4 5 6 7 8 9 10 11 12 13 14 15 16 17 18 19 20 21 22 23 24 25 26 27 28 29

000
FTUS41 KRLX 151505 AAA
TAFPKB
TAF AMD
KPKB 151505Z 1515/1612 21010G23KT P6SM FEW140
     FM152100 22010G21KT 4SM SHRA BR OVC015
     FM152300 27010G21KT 6SM SHRA BR BKN010
     FM160000 29010G21KT P6SM BKN006
     FM160200 31009G16KT P6SM BKN025
     FM160500 32008KT P6SM BKN015
     FM161100 32006KT P6SM SCT025=

USA.gov is the U.S. government's official web portal to all federal, state and local government web resources and services.